This is the latest recevied weather packets stored in our database for station/object VA3JLF-1. If no packets are shown the sender has not sent any weather packets the latest 10 day(s).
| Time | Temp. | Humidity | Pressure | Rain* | Wind** | Luminosity | Snow |
|---|---|---|---|---|---|---|---|
| 1777738559 | 5.56° C | 84% | 1010.4 hPa | 0 mm | - | - | - |
| 1777737960 | 5° C | 84% | 1010.5 hPa | 0 mm | - | - | - |
| 1777737359 | 5° C | 85% | 1010.7 hPa | 0 mm | - | - | - |
| 1777736161 | 4.44° C | 85% | 1011.1 hPa | 0 mm | - | - | - |
| 1777733757 | 4.44° C | 87% | 1010.8 hPa | 0 mm | - | - | - |
| 1777733157 | 4.44° C | 88% | 1010.7 hPa | 0 mm | - | - | - |
| 1777732558 | 4.44° C | 86% | 1010.9 hPa | 0 mm | - | - | - |
| 1777731957 | 4.44° C | 87% | 1010.8 hPa | 0 mm | - | - | - |
| 1777731359 | 4.44° C | 88% | 1010.9 hPa | 0 mm | - | - | - |
| 1777730758 | 4.44° C | 89% | 1010.9 hPa | 0 mm | - | - | - |
| 1777730158 | 3.89° C | 88% | 1010.7 hPa | 0 mm | - | - | - |
| 1777729559 | 3.89° C | 89% | 1010.9 hPa | 0 mm | - | - | - |
| 1777728957 | 4.44° C | 88% | 1011.1 hPa | 0 mm | - | - | - |
| 1777728358 | 4.44° C | 87% | 1010.9 hPa | 0 mm | - | - | - |
| 1777727757 | 5° C | 83% | 1010.9 hPa | 0 mm | - | - | - |
| 1777727157 | 5° C | 81% | 1010.9 hPa | 0 mm | - | - | - |
| 1777726558 | 5° C | 83% | 1010.9 hPa | 0 mm | - | - | - |
| 1777725957 | 4.44° C | 83% | 1010.8 hPa | 0 mm | - | - | - |
| 1777725357 | 5° C | 83% | 1010.8 hPa | 0 mm | - | - | - |
| 1777724757 | 4.44° C | 84% | 1010.9 hPa | 0 mm | - | - | - |
| 1777724157 | 4.44° C | 85% | 1010.9 hPa | 0 mm | - | - | - |
| 1777723558 | 4.44° C | 87% | 1010.7 hPa | 0 mm | - | - | - |
| 1777722957 | 4.44° C | 87% | 1010.9 hPa | 0 mm | - | - | - |
| 1777722358 | 3.89° C | 87% | 1010.5 hPa | 0 mm | - | - | - |
| 1777721757 | 3.89° C | 89% | 1010.6 hPa | 0 mm | - | - | - |
* Rain latest hour (hover to see other rain measurements)
** Current wind speed in m/s (hover to see current wind gust speed)